Location: Audinghen
(50.8518°N, 1.6129°E)
Time: 05:23:44
(UTC+00:00)

Cosmos 1461 - Pass Details

Date: 07 August 2020
Orbit: 501 x 665 km, 65.0° (Epoch: 23 September)

Event Time Altitude Azimuth Distance (km) Brightness Sun altitude
Exits shadow 03:23:34 13° 225° (SW) 1,758 4.7 -9.4°
Maximum altitude 03:27:30 78° 312° (NW) 634 3.1 -8.9°
Drops below altitude 10° 03:32:06 10° 39° (NE) 2,030 7.3 -8.4°
Sets 03:34:28 0° 41° (NE) 2,964 8.6 -8.1°
